Theta_e
303 303 303 303 303 303 303 303 303 303 303 304 305 306 307 307 308 313 314 312 311 308 314 316 313 311 310 314 315 318 321 322 322 323 324 325 326 324 323 322 323 323 326 327 345
303 303 304 304 304 303 304 304 304 305 306 307 307 308 308 309 310 314 312 308 309 308 317 313 313 314 312 312 314 317 320 321 322 322 323 323 325 324 322 322 322 322 322 322 325
304 306 306 305 304 304 305 306 306 306 307 307 308 309 310 310 317 314 308 309 309 309 316 314 312 314 314 313 313 315 317 318 319 319 320 321 323 323 323 323 322 322 323 322 322
306 305 305 305 305 306 307 307 307 307 307 307 309 310 310 314 318 316 309 309 309 308 314 313 313 314 316 316 314 314 314 315 316 316 317 321 321 323 322 322 322 322 321 322 321
306 306 306 306 306 307 308 309 309 309 308 309 310 310 311 318 314 311 310 311 311 312 312 313 314 315 316 315 314 315 315 314 313 314 315 317 321 321 321 322 322 321 321 322 323
304 307 307 307 308 309 310 311 310 310 309 311 311 310 316 318 312 312 313 313 312 313 313 313 314 315 315 316 316 315 314 314 314 314 314 315 318 318 319 320 321 322 322 321 322
304 307 307 308 309 310 310 309 309 309 309 311 311 310 316 315 312 313 313 313 314 313 313 314 313 314 315 316 315 315 316 316 315 314 315 314 315 316 316 318 320 321 321 322 323
307 303 307 308 309 310 309 309 310 310 310 309 311 314 317 313 313 314 313 314 314 314 314 313 313 314 314 314 315 315 316 316 315 315 315 315 315 316 314 315 317 319 320 322 322
310 305 306 308 308 309 309 309 311 311 310 311 314 317 317 314 314 313 313 314 314 315 315 314 313 314 314 317 317 317 316 316 315 315 315 316 316 316 315 315 316 317 318 319 322
311 307 303 308 308 309 309 311 313 313 314 316 315 316 316 315 314 312 313 313 314 315 316 315 315 317 317 317 318 318 317 316 316 315 315 315 315 316 315 316 317 316 317 319 320
309 305 304 309 309 308 309 315 315 317 315 313 313 314 314 314 313 312 314 313 314 315 318 317 318 318 317 318 318 318 318 317 316 316 316 317 315 316 317 316 318 317 318 319 320
305 304 307 309 309 309 312 313 312 312 314 315 314 314 314 314 313 314 314 314 316 318 317 318 318 318 318 318 317 317 318 318 318 316 316 317 317 316 316 316 317 318 319 320 321
304 304 309 310 310 313 314 313 312 312 316 315 313 313 314 313 314 315 314 314 316 317 317 316 318 318 318 319 318 318 319 318 318 318 317 318 319 318 317 316 315 317 318 319 320
304 306 310 309 313 312 313 312 312 313 321 314 313 314 313 314 316 314 314 314 315 317 316 317 318 317 317 318 317 319 317 318 319 320 319 317 320 319 318 318 317 316 317 318 320
304 306 308 309 312 312 311 312 313 315 323 314 314 313 314 315 315 315 314 314 316 317 316 318 317 317 318 318 317 319 318 319 319 320 319 320 319 319 319 318 318 317 315 317 319
305 306 308 312 314 310 311 313 316 323 316 315 315 316 316 316 315 315 315 315 315 316 317 317 316 317 318 317 317 317 319 319 319 319 324 320 319 319 318 318 318 318 316 316 318
305 305 307 309 309 309 312 315 321 315 314 316 315 316 317 317 316 316 316 317 318 321 319 318 318 318 319 318 317 317 320 321 323 326 323 318 319 319 319 319 318 318 317 316 317
305 306 312 310 308 310 314 318 317 314 314 315 315 316 316 316 316 317 317 318 317 317 321 320 320 318 318 319 318 319 320 320 321 325 321 318 318 320 320 319 317 317 317 317 316
307 314 313 308 309 311 316 317 315 315 314 314 315 316 316 316 316 315 317 318 316 316 322 322 319 317 315 315 317 319 320 318 321 322 322 319 319 320 318 317 318 317 317 318 317
309 314 313 307 306 314 316 312 313 313 313 314 316 315 317 317 317 316 315 316 316 316 316 317 318 315 316 315 316 317 317 321 320 322 321 318 317 316 318 317 318 318 317 318 318
313 313 312 307 313 314 315 313 312 309 312 314 315 316 316 315 315 315 315 315 316 316 314 313 311 315 314 317 319 319 318 318 319 321 321 317 315 317 319 320 319 318 317 320 320
313 316 311 309 314 313 314 312 310 312 311 313 314 315 315 315 315 314 314 314 313 312 312 313 312 317 316 315 316 317 319 318 322 318 318 317 319 317 317 318 319 318 318 321 321
314 313 312 311 315 314 313 312 312 312 312 313 314 315 314 315 315 315 315 313 312 313 309 310 314 319 319 320 315 317 318 319 319 320 321 322 320 316 316 317 317 321 317 321 323
314 317 314 312 312 312 313 314 313 311 311 312 314 314 315 316 314 315 315 313 313 313 314 313 312 315 320 319 318 320 317 318 318 321 320 318 317 317 316 317 318 322 317 321 335
316 316 312 315 314 313 313 313 313 312 311 311 314 314 315 316 316 316 315 316 314 313 312 311 315 316 318 317 318 321 321 318 317 317 319 318 317 318 317 319 322 322 320 338 339
314 314 312 314 312 313 311 313 310 311 311 312 314 314 314 315 316 316 316 315 315 311 311 313 315 317 321 320 320 319 318 318 318 319 319 318 322 319 319 318 322 324 335 335 335
313 312 311 314 315 315 313 310 310 310 311 311 313 314 315 315 314 314 315 314 315 312 311 313 314 316 322 321 322 323 315 312 314 314 310 318 319 319 317 325 328 334 336 334 332
Wind_Speed
17 17 18 19 19 20 21 19 16 13 11 10 10 11 13 13 13 13 11 9 8 5 9 6 6 10 15 17 22 20 17 22 30 30 21 24 25 16 15 24 28 27 17 10 5
20 20 20 20 19 17 15 13 12 11 10 10 9 10 11 13 11 3 7 1 5 5 7 7 10 6 13 16 22 19 17 28 26 24 22 27 24 29 12 24 24 28 28 24 9
24 23 21 19 15 13 13 13 12 11 11 11 10 11 11 8 6 1 3 7 7 7 9 11 11 12 16 14 16 22 22 24 29 28 28 28 26 29 19 22 22 22 26 29 18
25 23 20 17 14 12 13 14 14 13 14 12 11 10 7 3 3 2 3 3 4 5 6 8 9 13 15 13 14 18 24 29 28 31 35 22 27 25 25 22 23 14 23 23 24
26 21 20 17 14 12 14 16 15 14 13 10 10 8 1 6 8 2 2 2 5 5 6 8 10 13 14 13 10 15 16 23 24 26 32 30 23 23 30 27 22 27 18 23 13
26 20 19 16 13 13 14 17 16 15 10 10 8 3 3 9 1 2 2 5 6 7 7 7 8 9 12 15 15 18 18 18 17 21 27 25 29 26 36 28 26 27 26 21 20
26 21 16 14 13 14 14 17 17 18 7 13 5 2 6 3 1 4 7 9 8 8 11 9 9 11 12 13 13 14 18 20 21 24 23 28 27 32 40 34 30 27 34 30 27
26 22 14 13 13 13 15 18 17 18 8 17 2 2 9 4 2 6 8 11 13 13 13 13 12 16 18 18 19 18 19 19 19 24 24 21 27 29 38 40 39 35 30 27 31
28 23 15 11 13 13 17 19 13 14 10 12 2 4 11 4 6 7 13 12 11 12 13 13 13 19 18 17 15 17 17 20 22 21 15 16 25 24 32 36 41 41 37 35 31
29 24 17 9 13 12 17 16 18 6 9 7 6 7 8 7 10 13 15 14 15 13 15 15 18 15 16 14 15 19 18 17 15 16 14 18 22 20 25 31 32 37 41 34 34
30 24 15 8 12 11 16 14 10 3 10 12 15 18 15 9 12 17 14 11 11 14 14 20 14 15 22 19 19 21 24 24 22 20 12 18 21 22 18 26 28 33 28 28 30
30 23 12 7 12 10 11 11 10 11 15 9 6 9 12 11 17 22 11 9 14 16 16 17 20 23 22 22 22 23 25 26 25 21 20 24 23 21 19 22 26 26 23 24 25
32 18 10 10 7 10 8 8 11 10 8 1 5 8 7 8 19 18 4 10 17 20 21 20 22 21 18 21 22 21 24 24 25 24 20 21 26 26 21 29 33 35 32 28 29
31 13 9 10 6 10 5 13 13 7 6 4 1 2 10 17 16 15 16 19 16 20 20 18 21 18 20 24 22 25 21 24 17 20 17 18 21 25 26 27 27 35 37 35 34
29 12 9 9 8 11 13 14 7 3 4 8 5 9 16 19 20 11 5 13 19 22 16 25 25 24 21 21 20 17 14 16 19 20 19 29 14 25 26 28 28 29 39 41 38
26 11 9 9 8 13 14 11 2 7 5 9 10 18 17 13 13 20 15 15 20 20 21 27 31 23 26 23 23 13 15 17 17 14 15 27 21 22 20 24 20 23 39 42 41
24 9 9 9 13 15 12 8 7 5 13 10 21 21 18 17 22 13 14 17 10 6 16 16 23 23 22 20 19 16 10 6 7 10 19 15 17 23 17 28 22 19 30 40 43
23 7 9 9 18 12 10 12 9 13 13 18 16 21 11 21 17 21 19 17 15 12 8 11 12 5 9 14 11 11 12 6 8 14 18 21 23 21 24 24 20 21 30 36 44
18 8 5 15 15 9 14 6 8 13 15 15 20 15 14 20 20 22 21 14 6 5 3 7 8 5 15 18 13 2 10 17 16 20 17 17 5 22 17 15 20 18 23 30 44
19 6 4 17 11 7 7 1 7 7 13 14 18 12 24 22 20 22 14 9 10 6 11 3 12 16 19 10 17 12 2 4 4 6 15 10 20 14 19 19 17 16 20 32 42
15 9 8 17 9 11 5 7 12 16 14 9 16 21 19 15 19 19 8 18 7 9 11 6 6 14 15 10 16 5 4 9 12 11 10 15 12 11 15 17 13 17 29 36 38
14 6 12 16 11 14 8 9 9 13 18 16 12 16 16 18 14 8 10 13 7 9 4 6 4 8 22 23 20 16 19 18 10 13 14 16 19 11 16 17 18 15 30 29 39
16 11 7 16 6 8 13 16 6 11 13 14 13 16 18 18 8 10 19 19 26 6 3 2 4 7 11 2 10 3 11 20 17 15 17 12 7 6 13 20 21 22 36 35 36
13 6 11 8 0 10 13 12 14 12 13 11 17 18 15 19 17 13 24 9 18 19 16 7 5 12 13 19 12 4 13 21 16 11 15 16 19 15 20 16 18 26 38 42 28
10 7 5 7 14 16 16 13 15 17 10 20 16 21 24 18 25 16 21 29 23 5 4 2 7 15 19 23 24 24 19 19 14 17 16 16 17 18 12 13 21 31 38 30 28
11 9 12 19 15 14 11 13 16 16 19 17 17 22 24 18 17 28 26 20 5 4 3 3 5 15 23 19 16 11 4 13 13 14 13 15 25 21 14 19 28 28 37 31 32
12 10 11 15 17 13 12 15 20 20 11 21 22 22 23 24 34 39 32 28 6 3 2 4 4 5 8 11 10 3 5 12 13 10 3 8 19 22 11 22 21 35 39 36 34
Wind_Direction
355 348 339 332 328 327 328 329 332 333 331 329 327 327 321 316 311 328 301 268 270 55 38 322 293 265 247 251 236 237 248 248 248 254 254 261 264 239 225 250 244 239 204 216 129
354 345 337 330 328 333 342 350 354 354 350 347 338 322 319 315 319 312 261 309 337 354 1 311 298 283 254 243 238 232 244 248 261 266 266 268 262 254 226 237 246 238 240 238 215
355 350 347 346 352 359 3 2 360 356 351 344 337 328 327 332 293 84 227 302 303 301 308 294 288 271 274 248 234 244 246 266 276 275 278 278 281 249 236 243 234 237 227 230 206
1 2 5 6 8 10 9 2 354 346 342 341 338 333 336 46 350 188 309 312 317 325 296 284 275 265 259 261 229 250 257 266 277 281 281 288 270 267 265 254 256 242 235 230 215
5 7 4 5 10 12 5 356 351 344 345 346 340 336 322 240 65 298 39 31 346 300 282 288 279 272 265 271 272 266 271 273 269 262 269 270 261 263 269 268 254 261 245 234 218
4 1 1 4 7 5 2 355 350 350 357 348 345 333 346 255 111 223 248 262 286 275 274 283 290 316 294 274 274 277 285 283 277 278 263 255 259 257 257 256 250 254 253 244 235
2 358 356 356 358 359 356 352 343 345 355 353 332 189 273 352 202 278 275 275 274 269 272 266 276 284 294 284 268 277 269 270 257 252 252 260 255 250 253 255 247 237 247 247 244
356 354 344 344 346 349 348 346 342 342 301 347 270 198 279 212 281 301 303 285 270 261 260 264 271 274 271 278 277 266 263 267 263 239 237 231 255 250 248 247 249 248 248 250 235
352 349 335 334 334 337 342 342 338 344 357 326 67 234 277 238 267 296 309 287 290 259 258 260 262 268 270 256 260 244 254 257 268 231 217 245 259 252 253 256 233 239 238 242 239
349 347 336 321 334 327 338 338 330 328 359 334 259 249 249 271 299 298 307 273 273 273 242 233 245 248 241 241 260 277 276 269 254 262 249 242 258 266 252 258 243 231 232 232 234
349 346 339 321 334 335 344 324 332 233 284 297 290 281 285 287 291 299 319 288 258 255 260 259 234 252 260 267 262 273 276 278 280 287 258 262 273 277 270 243 268 227 215 232 231
351 348 349 338 336 341 355 339 347 307 308 289 282 264 276 287 288 311 298 253 241 250 276 270 257 245 252 262 271 269 267 267 273 261 265 264 258 254 257 266 254 251 234 225 226
353 353 3 352 353 357 331 330 334 320 273 299 274 296 306 296 299 314 280 285 279 281 281 274 268 273 260 249 260 268 263 265 272 272 262 276 278 259 246 247 243 249 242 238 233
355 2 4 2 356 339 3 327 323 296 268 69 166 64 304 307 293 319 283 284 286 283 295 286 286 280 274 264 259 256 248 261 295 285 269 260 261 259 250 234 232 232 231 232 233
354 2 6 356 330 349 323 326 316 189 273 11 352 295 296 313 309 295 270 272 278 293 291 274 282 284 269 264 270 291 284 275 258 257 271 260 260 256 250 235 223 222 222 224 223
351 356 9 356 329 330 325 320 321 233 6 332 333 334 322 324 327 310 288 277 285 288 275 270 267 255 253 260 260 252 250 264 273 266 252 248 245 257 247 257 229 227 213 216 217
353 347 357 12 333 325 321 291 266 352 341 349 331 332 305 349 334 329 306 300 273 274 277 296 279 267 229 247 248 239 257 235 237 221 242 249 228 241 244 244 247 230 222 209 211
355 356 345 354 331 319 316 271 287 1 346 333 324 307 312 347 345 331 315 302 288 265 272 287 298 33 19 264 291 271 218 247 265 245 251 242 234 233 244 253 237 250 227 213 207
355 354 358 330 334 320 288 319 353 344 336 325 316 311 327 341 335 345 322 306 354 355 272 312 265 322 302 285 250 355 228 252 258 263 273 269 229 285 262 263 223 238 260 222 200
358 333 313 345 340 310 285 260 328 334 324 319 307 316 322 336 333 342 315 319 343 338 17 309 288 280 288 290 258 200 225 233 202 247 255 252 259 255 242 221 233 225 232 242 204
355 309 344 344 318 313 331 324 324 335 334 326 313 310 322 326 329 321 282 307 3 333 337 277 224 283 289 243 238 178 217 233 267 252 269 275 261 36 340 325 230 217 226 229 197
347 310 345 346 299 357 1 336 321 317 319 312 295 308 319 331 307 291 276 288 8 330 253 252 270 275 276 273 270 226 231 227 245 256 258 260 261 47 291 313 308 222 219 219 195
336 311 330 6 7 352 332 321 278 301 315 309 301 310 320 313 300 247 291 293 318 295 241 202 241 287 296 209 28 276 248 244 239 259 258 260 269 348 306 290 293 298 207 223 200
333 329 345 315 238 346 337 313 322 330 321 305 301 298 299 307 319 287 290 305 291 308 300 247 234 245 274 297 311 237 246 256 231 244 257 258 273 272 269 270 280 283 208 215 159
351 354 349 311 328 327 306 309 310 327 331 313 315 321 322 324 312 308 303 312 318 326 331 243 266 269 265 270 270 270 244 254 233 242 244 261 266 262 274 278 267 260 209 131 138
333 342 322 298 318 303 308 336 327 326 319 314 304 324 318 313 302 316 313 301 290 323 280 230 275 299 288 278 262 225 292 352 312 299 287 265 266 272 281 258 261 250 146 143 130
337 323 301 301 325 317 333 324 315 316 309 309 310 307 317 326 319 302 288 277 238 208 253 272 294 293 277 325 289 122 27 342 294 268 285 244 270 309 300 262 218 150 137 124 124